Regional Weather Roundup
Issued by NWS

Home | Current Version | Previous Version | Graphics & Text | Print | Product List | Glossary On
Versions: 1 2 3 4 5 6 7 8 9 10 11 12 13 14 15 16 17 18 19 20 21 22 23 24 25 26 27 28 29 30 31 32 33 34 35 36 37 38 39 40 41 42 43 44 45 46 47 48 49 50
000
ASUS43 KMKX 250221
RWRWI

WISCONSIN REGIONAL WEATHER ROUNDUP
NATIONAL WEATHER SERVICE MILWAUKEE/SULLIVAN WI
900 PM CDT THU APR 24 2014

NOTE: "FAIR" INDICATES FEW OR NO CLOUDS BELOW 12,000 FEET WITH NO
SIGNIFICANT WEATHER AND/OR OBSTRUCTIONS TO VISIBILITY.

WIZ001-002-006>008-014>016-023>028-250300-
NORTHWEST WISCONSIN

CITY           SKY/WX    TMP DP  RH WIND       PRES   REMARKS
SUPERIOR ARPT  MIX PCPN  32  32 100 NE9       29.73R WCI  24
ASHLAND        CLOUDY    33  33 100 N6        29.73S FOG     WCI  28
HAYWARD        CLOUDY    38  32  79 E3        29.68R HAZE
SIREN          DRIZZLE   38  38  99 CALM      29.70R
RICE LAKE      FOG       42  41  97 CALM      29.70R VSB 3/4
LADYSMITH      CLOUDY    41  40  96 SE6       29.69S FOG
EAU CLAIRE     CLOUDY    43  42  97 W7        29.69R
MENOMONIE      CLOUDY    43  43 100 SW5       29.70R FOG
NEW RICHMOND   CLOUDY    42  42 100 W8        29.71R FOG
OSCEOLA        CLOUDY    42  42  99 W8        29.74R
$$

WIZ003>005-009-010-017-018-250300-
NORTH CENTRAL WISCONSIN

CITY           SKY/WX    TMP DP  RH WIND       PRES   REMARKS
WOODRUFF       LGT SNOW  37  35  93 SE15      29.72F WCI  27
RHINELANDER    LGT RAIN  35  34  96 SE16      29.73F FOG     WCI  25
EAGLE RIVER    LGT SNOW  34  33  99 SE17      29.75S WCI  23
LAND O LAKES   MIX PCPN  35  33  95 SE8G18    29.77S WCI  28
PHILLIPS       CLOUDY    38  36  94 SE10G16   29.68S FOG     WCI  31
TOMAHAWK       RAIN      37  35  94 E7        29.71R WCI  31
MEDFORD        LGT RAIN  39  38  97 SE10G21   29.68S WCI  32
MERRILL        CLOUDY    39  37  91 SE17G23   29.70F WCI  30
$$

WIZ029-030-035-036-043>047-250300-
CENTRAL WISCONSIN

CITY           SKY/WX    TMP DP  RH WIND       PRES   REMARKS
WAUSAU         LGT RAIN  40  39  97 SE13G21   29.70F WCI  32
MOSINEE        LGT RAIN  39  39 100 E12G23    29.72F WCI  32
MARSHFIELD     LGT RAIN  41  39  93 SE16G23   29.68S FOG
STEVENS POINT  LGT RAIN  39  37  92 E10G16    29.71F WCI  32
WAUPACA        LGT RAIN  43  39  87 NE7       29.74F
WAUTOMA        CLOUDY    43  40  89 NE8       29.72F
WISC RAPIDS    CLOUDY    42  39  89 E9        29.71F
CAMP DOUGLAS   CLOUDY    48  48 100 SE6       29.67S FOG
$$

WIZ011>013-019>022-031-037>040-048>050-250300-
NORTHEAST WISCONSIN

CITY           SKY/WX    TMP DP  RH WIND       PRES   REMARKS
ANTIGO         LGT SNOW  35  34  96 E21G30    29.74F WCI  23
STURGEON BAY   CLOUDY    39  32  75 E7        29.83R WCI  34
GREEN BAY      LGT RAIN  40  38  93 NE8       29.79R WCI  34
MANITOWOC      LGT RAIN  44  33  65 SE9       29.78R
APPLETON       LGT RAIN  43  36  75 E6        29.77R
CLINTONVILLE   LGT RAIN  37  37 100 E9        29.78F WCI  31
OSHKOSH        CLOUDY    45  35  68 E6        29.74R
$$

WIZ032>034-041-042-053>061-250300-
SOUTHWEST WISCONSIN

CITY           SKY/WX    TMP DP  RH WIND       PRES   REMARKS
LA CROSSE      CLOUDY    46  44  93 NW6       29.70R FOG
SPARTA         CLOUDY    46  46  99 W3        29.69R FOG
VIROQUA        CLOUDY    47  47 100 W7        29.68R
BOSCOBEL       LGT RAIN  51  49  92 CALM      29.69R FOG
PRAIRIE DU CHI CLOUDY    50  47  90 NW5       29.69R
PLATTEVILLE    CLOUDY    50  49  95 E5        29.70R
$$

WIZ056-057-062-063-064-067-068-250300-
SOUTH CENTRAL WISCONSIN

CITY           SKY/WX    TMP DP  RH WIND       PRES   REMARKS
BARABOO/DELLS  RAIN      46  45  93 E6        29.69R
LONE ROCK      RAIN      50  49  96 E7        29.68S FOG
WATERTOWN      CLOUDY    52  32  47 SE5       29.69R
MADISON        CLOUDY    48  46  93 CALM      29.69F
MIDDLETON      CLOUDY    50  48  93 CALM      29.69S
MONROE         RAIN      51  51 100 S5        29.68F
JANESVILLE     LGT RAIN  55  41  58 CALM      29.69
$$

WIZ051-052-058>065-066-070>072-250300-
SOUTHEAST WISCONSIN

CITY           SKY/WX    TMP DP  RH WIND       PRES   REMARKS
MILWAUKEE      CLOUDY    50  30  46 SE20G28   29.73F
WAUKESHA       CLOUDY    50  28  43 E16       29.72F
MILWAUKEE/TIMM CLOUDY    48  27  43 SE12G22   29.73F
RACINE         LGT RAIN  46  33  60 SE16G29   29.74F
BURLINGTON     CLOUDY    49  32  51 MISG      29.70R
KENOSHA        LGT RAIN  48  33  56 SE14      29.73S
FOND DU LAC    LGT RAIN  47  33  58 SE13      29.73R
SHEBOYGAN      CLOUDY    48  28  46 SE13G21   29.74F
WEST BEND      CLOUDY    46  28  49 SE12G21   29.71F
JUNEAU         CLOUDY    50  27  40 SE12      29.72R
$$

LSZ147-162-250300-
LAKE SUPERIOR

STATION/POSITION TIME  TEMP    WIND        PRES    WAVE
                       AIR SEA DIR/SP/G            HT/PER
                 (UTC) (F)     (DEG/KT/KT) (MB)    (FT/S)
DEVILS ISLAND    0200   33     100/ 20/ 23 1008.2F
PORT WING        0100   35      30/  6/  8 1006.8F
SAXON HARBOR     0100           CALM  /  4 1007.1F
$$

LMZ867-665-643>646-250300-
LAKE MICHIGAN

STATION/POSITION TIME  TEMP    WIND        PRES    WAVE
                       AIR SEA DIR/SP/G            HT/PER
                 (UTC) (F)     (DEG/KT/KT) (MB)    (FT/S)
NORTHPORT PIER   0100   38      60/ 14/ 19 1011.5R
SISTER BAY       0123   41     100/ 10/ 18   N/A
KEWAUNEE LAKESHO 0200   39     310/  2/  7 1009.9R
SHEBOYGAN LAKESH 0200   44     130/ 21/ 23 1007.7F
PORT WASHINGTON  0140   44     120/ 14/ 18 1007.5F
MILWAUKEE LAKESH 0200   44     120/ 19/ 21   N/A
KENOSHA   LAKESH 0200   44     130/ 19/ 21   N/A
$$

TC  - TEMPERATURE IN CELSIUS
VSB - VISIBILITY IN STATUTE MILES
WCI - WIND CHILL INDEX
HX  - HEAT INDEX




USA.gov is the U.S. government's official web portal to all federal, state and local government web resources and services.